Other Public Products
Issued by NWS Charleston, SC

Current Version | Previous Version | Text Only | Print | Product List | Glossary Off
Versions: 1 2 3 4 5 6 7 8 9 10 11 12 13 14 15 16 17 18 19 20 21 22 23 24 25 26 27 28 29 30 31 32 33 34 35 36 37 38 39 40 41 42 43 44 45 46 47 48 49 50

000
FPUS82 KCHS 252112
OPUCHS

TEST...KCHS/KSAV Gateway Observations...TEST
National Weather Service Charleston SC
500 PM EDT TUE JUL 25 2017

NOTE: "fair" indicates few or no clouds below 12,000 feet with no
significant weather and/or obstructions to visibility.

SCZ050-WAZ558-NCZ071-TXZ119-213-PAZ071-DCZ001-FLZ074-172-MI076-
NYZ176-178-MAZ016-IL014-TNZ027-NJZ106-GAZ044-MD014-252200-

...Gateway Observations for Charleston International...

CITY           SKY/WX    TMP DP  RH WIND       PRES   REMARKS
Chas Airport   CLOUDY    80  72  76 S7        30.04R THUNDER
Seattle        MOSUNNY   82  51  34 NW7       30.03F
Charlotte      PTSUNNY   93  63  36 CALM      30.06F HX  94
Dallas DFW     MOSUNNY   96  73  47 S12       30.01F HX 105
Dallas Love    MOSUNNY   95  69  42 S15       30.02F HX 100
Philladelphia  LGT RAIN  75  61  61 VRB5G20   30.11R
Wash National  PTSUNNY   82  63  52 NW10      30.12S
Baltimore      PTSUNNY   79  63  57 NW9G20    30.11S
Miami          LGT RAIN  83  75  77 VRB3      30.11F HX  90
Detroit        PTSUNNY   79  54  41 E8        30.22S
Newark         PTSUNNY   72  61  68 N8        30.13R
Laguardia      CLOUDY    69  61  75 NE10      30.13S
J F K          PTSUNNY   69  63  81 SE8       30.14R
Boston Logan   PTSUNNY   65  58  78 E13       30.16S
Ft. Lauderdale MOSUNNY   88  77  69 SE10      30.09F HX 100
Chicago O`Hare PTSUNNY   81  56  42 S9        30.16F
Chicago Midway PTSUNNY   82  55  39 SE9       30.17F
Houston Bush   PTSUNNY   94  74  52 S13       30.06F HX 104
Houston Hobby  CLOUDY    93  75  55 S12       30.07F HX 104
Nashville      CLOUDY    88  69  53 SW9       30.08S HX  92
Atlanta        PTSUNNY   86  74  67 MISG      30.09S THUNDER HX  94

$$

GAZ044-118-TXZ119-213-NCZ071-DCZ001-MDZ014-506-PAZ021-071-NJZ106-
NYZ176-178-MAZ106-OHZ011-021-055-MIZ076-KYZ091-ILZ014-INZ047-
MNZ060-ONZ431-252200-

...Gateway Observations for Savannah International...

CITY           SKY/WX    TMP DP  RH WIND       PRES   REMARKS
Savannah Arpt  TSTM      80  76  87 W5        30.06R FOG
Atlanta        PTSUNNY   86  74  67 MISG      30.09S THUNDER HX  94
Charlotte      PTSUNNY   93  63  36 CALM      30.06F HX  94
Dallas DFW     MOSUNNY   96  73  47 S12       30.01F HX 105
Houston Bush   PTSUNNY   94  74  52 S13       30.06F HX 104
Wash National  PTSUNNY   82  63  52 NW10      30.12S
Wash Dulles    PTSUNNY   76  59  55 NW8       30.14R
Baltimore      PTSUNNY   79  63  57 NW9G20    30.11S
Philadelphia   LGT RAIN  75  61  61 VRB5G20   30.11R
Newark         PTSUNNY   72  61  68 N8        30.13R
Laguardia      CLOUDY    69  61  75 NE10      30.13S
J F K          PTSUNNY   69  63  81 SE8       30.14R
Boston         PTSUNNY   65  58  78 E13       30.16S
Pittsburg      PTSUNNY   74  57  55 CALM      30.20S
Akron          MOSUNNY   77  57  50 N6        30.21S
Cleveland      PTSUNNY   75  60  59 N7        30.24R
Cincinnati     SUNNY     81  61  50 E9        30.18R
Columbus       MOSUNNY   75  60  59 NE3       30.20S
Detroit        PTSUNNY   79  54  41 E8        30.22S
Chicago O`Hare PTSUNNY   81  56  42 S9        30.16F
Minneapolis    CLOUDY    81  69  67 S10       29.96S
Indianapolis   MOSUNNY   80  57  45 E12       30.16F
Toronto Canada PTSUNNY   72  55  56 S8        30.21R

$$




USA.gov is the U.S. government's official web portal to all federal, state and local government web resources and services.